Tracking 19831 objects as of 23-Aug-2019
HD Live streaming from Space Station
objects crossing your sky now

FENGYUN 1C DEB

Track FENGYUN 1C DEB now!
10-day predictions


NORAD ID: 30515
Int'l Code: 1999-025AJD
Perigee: 668.3 km
Apogee: 1,453.5 km
Inclination: 98.5 °
Period: 106.3 minutes
Semi major axis: 7431 km
RCS: 0.0145 m2 (small)
Launch date: May 10, 1999
Source: People's Republic of China (PRC)
Launch site: Taiyaun Space Center, China (TSC)

Note: This is SATELLITE DEBRIS
aabbcc
Your satellite tracking list
Your tracking list is empty




NASA's NSSDC Master Catalog

Two Line Element Set (TLE):
1 30515U 99025AJD 19234.35272793 +.00000102 +00000-0 +82740-4 0  9994
2 30515 098.5116 014.7574 0528284 358.7151 050.2813 13.55038327621086
Source of the keplerian elements: AFSPC